When you browse on this site, cookies collect data to enhance your experience and personalize the content and advertising you see.
Visit our Privacy Policy to learn more. By continuing to use the site, you agree to this use of cookies and data.
  • în România
  • Lista ţărilor
  • Pe 7 zile
  • Temperatura apei
  • Meteo pe hartă
  • Widget-uri
  • user-avatar
    Intrare

    Meteo pe oră la Tonton

    Astăzi, 3 Iunie, Miercuri

    Timp Temperatura Precipitaţii Vânt Presiune Umiditate
    00:00 +15°C° 0 mm 2 m/s 758 mmHg 77%
    01:00 +15°C° 0 mm 2 m/s 757 mmHg 75%
    02:00 +15°C° 0 mm 2 m/s 756 mmHg 73%
    03:00 +15°C° 0 mm 2 m/s 756 mmHg 71%
    04:00 +15°C° 0.1 mm 2 m/s 755 mmHg 75%
    05:00 +15°C° 0.1 mm 2 m/s 755 mmHg 79%
    06:00 +16°C° 0.1 mm 1 m/s 755 mmHg 83%
    07:00 +16°C° 0.1 mm 2 m/s 755 mmHg 82%
    08:00 +16°C° 0.1 mm 3 m/s 754 mmHg 81%
    09:00 +16°C° 0.1 mm 3 m/s 754 mmHg 81%
    10:00 +16°C° 0.2 mm 3 m/s 754 mmHg 84%
    11:00 +14°C° 0.2 mm 3 m/s 754 mmHg 87%
    12:00 +15°C° 0.2 mm 2 m/s 754 mmHg 90%
    13:00 +14°C° 0.6 mm 3 m/s 754 mmHg 92%
    14:00 +13°C° 0.6 mm 3 m/s 754 mmHg 94%
    15:00 +13°C° 0.6 mm 4 m/s 754 mmHg 95%
    16:00 +13°C° 0.3 mm 4 m/s 753 mmHg 95%
    17:00 +12°C° 0.3 mm 5 m/s 753 mmHg 95%
    18:00 +11°C° 0.3 mm 6 m/s 753 mmHg 95%
    19:00 +11°C° 0.1 mm 6 m/s 754 mmHg 95%
    20:00 +10°C° 0.1 mm 6 m/s 754 mmHg 95%
    21:00 +10°C° 0.1 mm 7 m/s 754 mmHg 95%
    22:00 +10°C° 0 mm 6 m/s 754 mmHg 94%
    23:00 +9°C° 0 mm 6 m/s 754 mmHg 94%

    Mâine, 4 Iunie, Joi

    Timp Temperatura Precipitaţii Vânt Presiune Umiditate
    00:00 +9°C° 0 mm 5 m/s 754 mmHg 94%
    01:00 +8°C° 0 mm 5 m/s 754 mmHg 93%
    02:00 +8°C° 0 mm 4 m/s 753 mmHg 93%
    03:00 +7°C° 0 mm 4 m/s 753 mmHg 92%
    04:00 +7°C° 0 mm 4 m/s 753 mmHg 91%
    05:00 +8°C° 0 mm 4 m/s 753 mmHg 90%
    06:00 +10°C° 0 mm 4 m/s 753 mmHg 89%
    07:00 +11°C° 0 mm 4 m/s 753 mmHg 83%
    08:00 +12°C° 0 mm 5 m/s 753 mmHg 77%
    09:00 +13°C° 0 mm 5 m/s 753 mmHg 71%
    10:00 +13°C° 0.1 mm 5 m/s 753 mmHg 68%
    11:00 +14°C° 0.1 mm 5 m/s 752 mmHg 66%
    12:00 +15°C° 0.1 mm 5 m/s 752 mmHg 63%
    13:00 +15°C° 0.1 mm 6 m/s 752 mmHg 64%
    14:00 +15°C° 0.1 mm 7 m/s 752 mmHg 64%
    15:00 +14°C° 0.1 mm 7 m/s 751 mmHg 65%
    16:00 +14°C° 0 mm 7 m/s 751 mmHg 67%
    17:00 +12°C° 0 mm 7 m/s 751 mmHg 70%
    18:00 +12°C° 0 mm 7 m/s 751 mmHg 73%
    19:00 +11°C° 0 mm 6 m/s 750 mmHg 79%
    20:00 +10°C° 0 mm 5 m/s 750 mmHg 86%
    21:00 +10°C° 0 mm 4 m/s 750 mmHg 92%
    22:00 +10°C° 0.2 mm 4 m/s 750 mmHg 93%
    23:00 +11°C° 0.2 mm 4 m/s 749 mmHg 94%

    Poimâine, 5 Iunie, Vineri

    Timp Temperatura Precipitaţii Vânt Presiune Umiditate
    00:00 +11°C° 0.2 mm 4 m/s 749 mmHg 94%
    01:00 +10°C° 0 mm 4 m/s 749 mmHg 94%
    02:00 +9°C° 0 mm 5 m/s 749 mmHg 93%
    03:00 +8°C° 0 mm 5 m/s 748 mmHg 92%
    04:00 +9°C° 0 mm 5 m/s 748 mmHg 91%
    05:00 +9°C° 0 mm 6 m/s 748 mmHg 90%
    06:00 +9°C° 0 mm 6 m/s 748 mmHg 88%
    07:00 +10°C° 0 mm 7 m/s 748 mmHg 81%
    08:00 +11°C° 0 mm 8 m/s 749 mmHg 73%
    09:00 +12°C° 0 mm 9 m/s 749 mmHg 65%
    10:00 +12°C° 0 mm 9 m/s 749 mmHg 63%
    11:00 +13°C° 0 mm 9 m/s 749 mmHg 61%
    12:00 +13°C° 0 mm 9 m/s 749 mmHg 58%
    13:00 +13°C° 0 mm 9 m/s 748 mmHg 58%
    14:00 +13°C° 0 mm 9 m/s 748 mmHg 58%
    15:00 +13°C° 0 mm 8 m/s 748 mmHg 57%
    16:00 +13°C° 0.1 mm 8 m/s 748 mmHg 61%
    17:00 +12°C° 0.1 mm 8 m/s 748 mmHg 65%
    18:00 +11°C° 0.1 mm 7 m/s 748 mmHg 69%
    19:00 +10°C° 0.2 mm 6 m/s 748 mmHg 75%
    20:00 +8°C° 0.2 mm 5 m/s 749 mmHg 82%
    21:00 +7°C° 0.2 mm 5 m/s 749 mmHg 88%
    22:00 +6°C° 0 mm 5 m/s 749 mmHg 88%
    23:00 +6°C° 0 mm 5 m/s 749 mmHg 89%

    6 Iunie, Sâmbătă

    Timp Temperatura Precipitaţii Vânt Presiune Umiditate
    00:00 +5°C° 0 mm 5 m/s 749 mmHg 89%
    01:00 +5°C° 0 mm 5 m/s 749 mmHg 89%
    02:00 +5°C° 0 mm 5 m/s 749 mmHg 88%
    03:00 +4°C° 0 mm 6 m/s 749 mmHg 88%
    04:00 +4°C° 0 mm 6 m/s 749 mmHg 87%
    05:00 +5°C° 0 mm 6 m/s 749 mmHg 86%
    06:00 +5°C° 0 mm 7 m/s 749 mmHg 86%
    07:00 +7°C° 0.1 mm 8 m/s 749 mmHg 79%
    08:00 +8°C° 0.1 mm 9 m/s 749 mmHg 73%
    09:00 +9°C° 0.1 mm 10 m/s 749 mmHg 67%
    10:00 +9°C° 0.1 mm 10 m/s 749 mmHg 70%
    11:00 +8°C° 0.1 mm 10 m/s 749 mmHg 74%
    12:00 +8°C° 0.1 mm 10 m/s 749 mmHg 77%
    13:00 +8°C° 0.4 mm 9 m/s 749 mmHg 81%
    14:00 +8°C° 0.4 mm 9 m/s 749 mmHg 85%
    15:00 +7°C° 0.4 mm 8 m/s 749 mmHg 89%
    16:00 +9°C° 0.2 mm 8 m/s 749 mmHg 89%
    17:00 +9°C° 0.2 mm 7 m/s 749 mmHg 89%
    18:00 +9°C° 0.2 mm 7 m/s 749 mmHg 89%
    19:00 +9°C° 0 mm 7 m/s 749 mmHg 89%
    20:00 +9°C° 0 mm 7 m/s 750 mmHg 89%
    21:00 +9°C° 0 mm 7 m/s 750 mmHg 88%
    22:00 +9°C° 0.1 mm 7 m/s 750 mmHg 89%
    23:00 +9°C° 0.1 mm 6 m/s 750 mmHg 89%

    7 Iunie, Duminică

    Timp Temperatura Precipitaţii Vânt Presiune Umiditate
    00:00 +9°C° 0.1 mm 6 m/s 750 mmHg 89%
    01:00 +9°C° 0.1 mm 6 m/s 750 mmHg 91%
    02:00 +9°C° 0.1 mm 6 m/s 750 mmHg 92%
    03:00 +9°C° 0.1 mm 5 m/s 751 mmHg 94%
    04:00 +9°C° 0 mm 5 m/s 751 mmHg 93%
    05:00 +9°C° 0 mm 5 m/s 751 mmHg 93%
    06:00 +10°C° 0 mm 5 m/s 751 mmHg 92%
    07:00 +12°C° 0 mm 5 m/s 751 mmHg 87%
    08:00 +13°C° 0 mm 6 m/s 751 mmHg 81%
    09:00 +14°C° 0 mm 6 m/s 752 mmHg 75%
    10:00 +14°C° 0.1 mm 7 m/s 752 mmHg 74%
    11:00 +15°C° 0.1 mm 7 m/s 752 mmHg 72%
    12:00 +15°C° 0.1 mm 7 m/s 752 mmHg 70%
    13:00 +15°C° 0.3 mm 7 m/s 753 mmHg 75%
    14:00 +14°C° 0.3 mm 7 m/s 753 mmHg 80%
    15:00 +14°C° 0.3 mm 7 m/s 753 mmHg 85%
    16:00 +14°C° 0.1 mm 7 m/s 753 mmHg 82%
    17:00 +14°C° 0.1 mm 7 m/s 753 mmHg 80%
    18:00 +14°C° 0.1 mm 6 m/s 753 mmHg 77%
    19:00 +13°C° 0 mm 6 m/s 754 mmHg 81%
    20:00 +12°C° 0 mm 5 m/s 754 mmHg 84%
    21:00 +10°C° 0 mm 5 m/s 755 mmHg 88%
    22:00 +10°C° 0 mm 5 m/s 755 mmHg 88%
    23:00 +10°C° 0 mm 5 m/s 755 mmHg 88%

    8 Iunie, Luni

    Timp Temperatura Precipitaţii Vânt Presiune Umiditate
    00:00 +10°C° 0 mm 5 m/s 755 mmHg 89%
    01:00 +10°C° 0 mm 5 m/s 755 mmHg 89%
    02:00 +10°C° 0 mm 5 m/s 755 mmHg 89%
    03:00 +10°C° 0 mm 5 m/s 755 mmHg 90%
    04:00 +10°C° 0.1 mm 5 m/s 755 mmHg 90%
    05:00 +12°C° 0.1 mm 5 m/s 756 mmHg 90%
    06:00 +12°C° 0.1 mm 5 m/s 756 mmHg 90%
    07:00 +13°C° 0 mm 5 m/s 757 mmHg 85%
    08:00 +14°C° 0 mm 5 m/s 757 mmHg 81%
    09:00 +15°C° 0 mm 5 m/s 757 mmHg 77%
    10:00 +16°C° 0.2 mm 5 m/s 758 mmHg 77%
    11:00 +16°C° 0.2 mm 5 m/s 758 mmHg 77%
    12:00 +16°C° 0.2 mm 5 m/s 758 mmHg 77%
    13:00 +16°C° 0.3 mm 5 m/s 758 mmHg 77%
    14:00 +17°C° 0.3 mm 5 m/s 758 mmHg 77%
    15:00 +17°C° 0.3 mm 6 m/s 758 mmHg 77%
    16:00 +16°C° 0.2 mm 5 m/s 758 mmHg 78%
    17:00 +16°C° 0.2 mm 5 m/s 758 mmHg 79%
    18:00 +16°C° 0.2 mm 5 m/s 758 mmHg 80%
    19:00 +15°C° 0.1 mm 4 m/s 759 mmHg 84%
    20:00 +13°C° 0.1 mm 3 m/s 759 mmHg 88%
    21:00 +12°C° 0.1 mm 3 m/s 760 mmHg 93%
    22:00 +11°C° 0 mm 3 m/s 760 mmHg 93%
    23:00 +11°C° 0 mm 3 m/s 760 mmHg 93%
    Arată mai mult